Content
SEND FEEDBACK

Daily
Averages
Monthly
Summary
United States of America

MOUNT VERNON - AIRPORT, MISSOURI


Home > North America > United States > Missouri
Elevation: 1190 feet     Latitude: 37 04N     Longitude: 093 53W

WEATHER
 
SELECT A DAY
Number of Records: 125,686;   Date Range: 2/5/09 - 9/21/14
 
SHARE

PRINT THIS DATA

[ ← Previous Day ]
WEATHER ALMANAC - JANUARY 3, 2013
[ Next Day → ]
[ °C ]   °F
Weather ElementAverageHighLow
Temperature30 °F37.4 °F (12:55 pm)21.2 °F (2:55 am)
Dewpoint23.6 °F28.4 °F (10:35 am)19.4 °F (3:35 am)
Humidity78.7 %100 % (2:55 am)56 % (12:55 pm)
Barometer30.34 in30.40 in (10:15 am)30.22 in (1:35 am)
Wind Speed3 mph6.9 mph (12:55 am)
Weather ElementAverage
Visibility8.3 mi
Wind DirectionSSW (191.6 °)

Weather ElementTotal
Precipitation---
Heating Degree Days35.7 (Base 65)
Averaged from 68 records on January 3, 2013
WEATHER CONDITIONS BREAKOUT
WIND DIRECTION BREAKOUT
WEATHER BY HOUR - JANUARY 3, 2013
[ °C ]   °F
Local TimeTemperatureDewpointHumidityBarometerVisibilityWind DirectionWind SpeedGust SpeedPrecipitationEventsConditions
12:35 AM24.8 °F21.2 °F86 %30.23 in10.0 miWNW (300°)4.6 mphClear
12:55 AM24.8 °F23.0 °F93 %30.23 in7.0 miNW (310°)6.9 mphClear
1:15 AM24.8 °F21.2 °F86 %30.23 in7.0 miNNW (330°)5.8 mphClear
1:35 AM23.0 °F21.2 °F93 %30.22 in7.0 miNNW (340°)4.6 mphClear
1:55 AM23.0 °F21.2 °F93 %30.23 in7.0 miCalmClear
2:15 AM23.0 °F21.2 °F93 %30.24 in7.0 miCalmClear
2:35 AM23.0 °F21.2 °F93 %30.26 in7.0 miWest (260°)3.5 mphClear
2:55 AM21.2 °F21.2 °F100 %30.27 in5.0 miWSW (240°)3.5 mphClear
3:15 AM21.2 °F21.2 °F100 %30.28 in5.0 miWSW (240°)3.5 mphClear
3:35 AM21.2 °F19.4 °F93 %30.28 in5.0 miSSW (210°)3.5 mphClear
3:55 AM21.2 °F19.4 °F93 %30.28 in5.0 miSSW (210°)3.5 mphMostly Cloudy
4:15 AM23.0 °F21.2 °F93 %30.29 in5.0 miSSW (200°)3.5 mphOvercast
4:35 AM23.0 °F23.0 °F100 %30.29 in5.0 miSSW (200°)3.5 mphOvercast
4:55 AM23.0 °F23.0 °F100 %30.30 in5.0 miCalmOvercast
5:15 AM24.8 °F23.0 °F93 %30.30 in7.0 miSouth (180°)4.6 mphOvercast
5:35 AM23.0 °F21.2 °F93 %30.31 in7.0 miSouth (190°)4.6 mphMostly Cloudy
5:55 AM23.0 °F21.2 °F93 %30.32 in7.0 miWSW (240°)4.6 mphClear
6:15 AM23.0 °F21.2 °F93 %30.32 in5.0 miCalmMostly Cloudy
6:35 AM23.0 °F21.2 °F93 %30.32 in5.0 miSW (220°)3.5 mphOvercast
7:15 AM23.0 °F21.2 °F93 %30.33 in5.0 miCalmClear
7:35 AM23.0 °F21.2 °F93 %30.34 in3.0 miSSW (210°)3.5 mphClear
7:55 AM23.0 °F21.2 °F93 %30.35 in3.0 miSW (220°)3.5 mphClear
8:15 AM23.0 °F23.0 °F100 %30.35 in4.0 miCalmMostly Cloudy
8:55 AM26.6 °F23.0 °F86 %30.36 in4.0 miSW (230°)3.5 mphClear
9:15 AM26.6 °F24.8 °F93 %30.37 in5.0 miWSW (240°)3.5 mphClear
9:35 AM28.4 °F26.6 °F93 %30.38 in7.0 miWest (280°)4.6 mphClear
9:55 AM30.2 °F26.6 °F86 %30.39 in7.0 miWest (260°)3.5 mphClear
10:15 AM32.0 °F26.6 °F80 %30.40 in10.0 miCalmClear
10:35 AM32.0 °F28.4 °F87 %30.40 in10.0 miWSW (250°)3.5 mphClear
10:55 AM32.0 °F26.6 °F80 %30.40 in10.0 miCalmClear
11:15 AM33.8 °F26.6 °F75 %30.40 in10.0 miCalmClear
11:35 AM33.8 °F26.6 °F75 %30.39 in10.0 miNNW (330°)3.5 mphClear
11:55 AM35.6 °F24.8 °F65 %30.38 in10.0 miCalmClear
12:15 PM35.6 °F23.0 °F60 %30.37 in10.0 miCalmClear
12:35 PM35.6 °F23.0 °F60 %30.36 in10.0 miCalmClear
12:55 PM37.4 °F23.0 °F56 %30.35 in10.0 miNNW (330°)6.9 mphClear
1:15 PM37.4 °F23.0 °F56 %30.34 in10.0 miNorth (350°)6.9 mphClear
1:35 PM37.4 °F23.0 °F56 %30.34 in10.0 miNNW (340°)3.5 mphClear
1:55 PM37.4 °F23.0 °F56 %30.34 in10.0 miWest (280°)6.9 mphClear
2:15 PM37.4 °F23.0 °F56 %30.34 in10.0 miWNW (300°)4.6 mphClear
2:35 PM37.4 °F23.0 °F56 %30.34 in10.0 miWNW (300°)6.9 mphClear
2:55 PM37.4 °F23.0 °F56 %30.34 in10.0 miNW (320°)5.8 mphClear
3:15 PM37.4 °F23.0 °F56 %30.34 in10.0 miNW (320°)4.6 mphClear
3:35 PM37.4 °F23.0 °F56 %30.34 in10.0 miNNW (330°)4.6 mphClear
3:55 PM37.4 °F23.0 °F56 %30.35 in10.0 miWNW (300°)5.8 mphClear
4:15 PM37.4 °F23.0 °F56 %30.35 in10.0 miNW (320°)6.9 mphClear
4:55 PM35.6 °F23.0 °F60 %30.36 in10.0 miNW (320°)4.6 mphClear
5:15 PM35.6 °F23.0 °F60 %30.36 in10.0 miNW (320°)3.5 mphClear
5:35 PM33.8 °F23.0 °F65 %30.36 in10.0 miNW (320°)3.5 mphClear
5:55 PM33.8 °F23.0 °F65 %30.37 in10.0 miNNW (330°)3.5 mphScattered Clouds
6:15 PM33.8 °F23.0 °F65 %30.38 in10.0 miCalmOvercast
6:35 PM32.0 °F23.0 °F69 %30.38 in10.0 miCalmOvercast
6:55 PM32.0 °F23.0 °F69 %30.37 in10.0 miCalmMostly Cloudy
7:15 PM33.8 °F23.0 °F65 %30.37 in10.0 miCalmMostly Cloudy
7:35 PM32.0 °F23.0 °F69 %30.38 in10.0 miCalmOvercast
7:55 PM32.0 °F23.0 °F69 %30.38 in10.0 miCalmOvercast
8:15 PM30.2 °F23.0 °F75 %30.38 in10.0 miCalmOvercast
8:35 PM32.0 °F24.8 °F75 %30.39 in10.0 miNW (310°)3.5 mphOvercast
8:55 PM32.0 °F26.6 °F80 %30.39 in10.0 miNW (310°)4.6 mphOvercast
9:15 PM32.0 °F26.6 °F80 %30.39 in10.0 miNNW (330°)4.6 mphOvercast
9:35 PM32.0 °F26.6 °F80 %30.39 in10.0 miNW (320°)3.5 mphOvercast
9:55 PM32.0 °F28.4 °F87 %30.39 in10.0 miNorth (350°)3.5 mphOvercast
10:15 PM32.0 °F28.4 °F87 %30.39 in10.0 miCalmOvercast
10:35 PM32.0 °F28.4 °F87 %30.39 in10.0 miCalmOvercast
10:55 PM32.0 °F28.4 °F87 %30.39 in10.0 miCalmOvercast
11:15 PM32.0 °F26.6 °F80 %30.40 in10.0 miNW (310°)4.6 mphOvercast
11:35 PM32.0 °F26.6 °F80 %30.40 in10.0 miNW (320°)4.6 mphOvercast
11:55 PM32.0 °F26.6 °F80 %30.40 in10.0 miNW (310°)4.6 mphOvercast
Hourly data recorded from KHFJ, located miles away from Mount Vernon - Airport, Missouri







STORIES FROM OUR PARTNERS